N3WPH Weather Reports


time (UTC)temp
C
wind
direction
speed
KPH
gust
KPH
rain 1hr
cm
rain 24hr
cm
rain mn
cm
humidity
%
barometer
mb
20260506103906 18 179 3.2 4.8 0.00 0.00 0.00 66 1007.4
20260506103403 18 233 4.8 8.0 0.00 0.00 0.00 66 1006.9
20260506102900 18 54 4.8 4.8 0.00 0.00 0.00 64 1007.0
20260506102358 18 2 0.0 1.6 0.00 0.00 0.00 63 1007.0
20260506101855 18 268 3.2 4.8 0.00 0.00 0.00 63 1007.0
20260506101351 18 230 4.8 4.8 0.00 0.00 0.00 62 1007.1
20260506100849 18 273 1.6 1.6 0.00 0.00 0.00 62 1007.1
20260506100347 18 166 8.0 11.3 0.00 0.00 0.00 61 1006.9
20260506095845 18 248 3.2 3.2 0.00 0.00 0.00 61 1007.0
20260506095342 18 348 0.0 0.0 0.00 0.00 0.00 61 1007.0
20260506094838 18 339 0.0 0.0 0.00 0.00 0.00 61 1007.1
20260506094338 18 233 6.4 8.0 0.00 0.00 0.00 60 1007.1
20260506093835 18 289 3.2 3.2 0.00 0.00 0.00 60 1007.2
20260506093332 18 328 0.0 0.0 0.00 0.00 0.00 60 1007.3
20260506092830 17 309 3.2 3.2 0.00 0.00 0.00 60 1007.1
20260506092327 17 352 0.0 0.0 0.00 0.00 0.00 61 1007.2
20260506091824 18 7 0.0 1.6 0.00 0.00 0.00 59 1007.3
20260506091322 18 178 1.6 1.6 0.00 0.00 0.00 58 1007.1
20260506090819 18 156 3.2 4.8 0.00 0.00 0.00 58 1007.4
20260506090317 18 170 3.2 3.2 0.00 0.00 0.00 58 1007.3
20260506085813 18 226 4.8 4.8 0.00 0.00 0.00 57 1007.3
20260506085309 18 259 1.6 3.2 0.00 0.00 0.00 57 1007.4
20260506084806 18 10 0.0 1.6 0.00 0.00 0.00 57 1007.5
20260506084302 18 194 1.6 1.6 0.00 0.00 0.00 56 1007.2
20260506083759 18 197 4.8 4.8 0.00 0.00 0.00 55 1007.5
20260506083257 18 285 1.6 1.6 0.00 0.00 0.00 55 1007.6
20260506082754 18 238 4.8 4.8 0.00 0.00 0.00 55 1007.6
20260506082249 19 4 0.0 1.6 0.00 0.00 0.00 54 1007.6
20260506081747 19 231 4.8 8.0 0.00 0.00 0.00 53 1007.4
20260506081245 19 100 0.0 0.0 0.00 0.00 0.00 54 1007.3
20260506080743 19 243 4.8 4.8 0.00 0.00 0.00 52 1007.3
20260506080239 19 235 4.8 4.8 0.00 0.00 0.00 52 1007.4
20260506073223 19 326 0.0 0.0 0.00 0.00 0.00 50 1007.6
20260506072720 20 172 3.2 4.8 0.00 0.00 0.00 50 1007.4
20260506072217 20 245 4.8 4.8 0.00 0.00 0.00 50 1007.6
20260506071715 20 218 3.2 3.2 0.00 0.00 0.00 49 1007.7
20260506071213 20 249 4.8 4.8 0.00 0.00 0.00 49 1007.7
20260506070709 20 345 0.0 0.0 0.00 0.00 0.00 49 1007.7
20260506070206 20 212 6.4 8.0 0.00 0.00 0.00 49 1007.6
20260506062143 19 209 3.2 3.2 0.00 0.00 0.00 49 1008.0
20260506061639 18 291 1.6 8.0 0.00 0.00 0.00 49 1007.9
20260506061137 17 165 4.8 8.0 0.00 0.00 0.00 53 1007.8
20260506060635 17 62 0.0 0.0 0.00 0.00 0.00 54 1008.0
20260506060132 17 66 1.6 1.6 0.00 0.00 0.00 55 1008.1
20260506051104 19 286 1.6 4.8 0.00 0.00 0.00 47 1008.7
20260506050602 20 306 1.6 1.6 0.00 0.00 0.00 47 1008.6
20260506045052 20 69 1.6 1.6 0.00 0.00 0.00 47 1008.5
20260506044550 20 340 1.6 3.2 0.00 0.00 0.00 47 1008.5
20260506044046 20 221 1.6 3.2 0.00 0.00 0.00 47 1008.3
20260506043543 20 185 4.8 8.0 0.00 0.00 0.00 46 1008.7
20260506043042 20 317 3.2 3.2 0.00 0.00 0.00 45 1008.6
20260506042541 20 144 0.0 1.6 0.00 0.00 0.00 47 1008.8
20260506042038 20 236 1.6 3.2 0.00 0.00 0.00 45 1008.7
20260506041537 20 227 1.6 1.6 0.00 0.00 0.00 47 1009.0
20260506041033 20 187 4.8 4.8 0.00 0.00 0.00 48 1008.7
20260506040531 20 228 3.2 4.8 0.00 0.00 0.00 47 1008.6
20260506040027 20 60 1.6 1.6 0.00 0.03 0.03 48 1008.8
20260506035524 20 175 3.2 3.2 0.00 0.03 0.03 46 1008.9
20260506035021 20 199 0.0 1.6 0.00 0.03 0.03 45 1008.7
20260506034518 21 154 3.2 3.2 0.00 0.03 0.03 45 1008.8
20260506034015 21 192 4.8 4.8 0.00 0.03 0.03 44 1008.7
20260506033512 21 166 4.8 8.0 0.00 0.03 0.03 44 1008.8
20260506033009 21 273 4.8 9.7 0.00 0.03 0.03 45 1008.8
20260506032507 21 205 4.8 8.0 0.00 0.03 0.03 45 1008.9
20260506032003 21 240 3.2 4.8 0.00 0.03 0.03 44 1008.8
20260506031501 21 155 3.2 3.2 0.00 0.03 0.03 45 1008.7
20260506030958 21 244 3.2 3.2 0.00 0.03 0.03 44 1008.7
20260506030456 21 216 6.4 8.0 0.00 0.03 0.03 44 1008.6
20260506025952 21 247 3.2 4.8 0.00 0.03 0.03 45 1008.7
20260506025449 21 213 3.2 4.8 0.00 0.03 0.03 45 1008.7
20260506024946 21 187 4.8 8.0 0.00 0.03 0.03 45 1008.8
20260506024443 20 153 3.2 3.2 0.00 0.03 0.03 47 1008.7
20260506023938 18 252 0.0 1.6 0.00 0.03 0.03 53 1008.6
20260506023435 17 65 0.0 0.0 0.00 0.03 0.03 63 1008.7
20260506022932 17 65 0.0 0.0 0.00 0.03 0.03 64 1008.8
20260506022430 17 64 0.0 0.0 0.00 0.03 0.03 63 1008.7
20260506021928 17 66 1.6 1.6 0.00 0.03 0.03 62 1008.6
20260506021425 18 57 0.0 0.0 0.00 0.03 0.03 60 1008.8
20260506020922 18 67 0.0 1.6 0.00 0.03 0.03 59 1008.9
20260506020420 18 73 1.6 1.6 0.00 0.03 0.03 57 1008.8
20260506015916 19 97 1.6 1.6 0.00 0.03 0.03 55 1008.7
20260506015414 20 85 1.6 1.6 0.00 0.03 0.03 55 1008.8
20260506014910 20 73 1.6 1.6 0.00 0.03 0.03 54 1008.8
20260506014408 20 72 0.0 0.0 0.00 0.03 0.03 52 1008.8
20260506013904 20 70 0.0 0.0 0.00 0.03 0.03 53 1008.7
20260506013402 20 93 1.6 1.6 0.00 0.03 0.03 52 1008.6
20260506012858 19 80 1.6 1.6 0.00 0.03 0.03 55 1008.5
20260506012355 19 55 0.0 0.0 0.00 0.03 0.03 55 1008.6
20260506011852 20 41 0.0 0.0 0.00 0.03 0.03 55 1008.3
20260506011349 20 56 0.0 0.0 0.00 0.03 0.03 53 1008.3
20260506010846 20 52 0.0 0.0 0.00 0.03 0.03 53 1008.1
20260506010344 20 36 0.0 0.0 0.00 0.03 0.03 51 1008.1
20260506005841 21 34 0.0 0.0 0.00 0.03 0.03 48 1008.1
20260506005338 21 46 0.0 0.0 0.00 0.03 0.03 47 1007.7
20260506004833 21 122 1.6 1.6 0.00 0.03 0.03 46 1007.9
20260506004331 21 176 3.2 3.2 0.00 0.03 0.03 45 1007.6
20260506003827 22 67 1.6 1.6 0.00 0.03 0.03 45 1007.8
20260506003324 22 145 1.6 3.2 0.00 0.03 0.03 45 1007.7
20260506002820 22 41 0.0 0.0 0.00 0.03 0.03 45 1007.8
20260506002317 23 52 0.0 1.6 0.00 0.03 0.03 43 1007.9
20260506001812 23 7 0.0 0.0 0.00 0.03 0.03 42 1007.7
20260506001310 23 278 1.6 3.2 0.00 0.03 0.03 42 1007.6
20260506000806 23 326 1.6 1.6 0.00 0.03 0.03 42 1007.7
20260506000304 23 352 0.0 0.0 0.00 0.03 0.03 41 1007.6
20260505235801 23 343 1.6 1.6 0.00 0.03 0.03 41 1007.7
20260505235259 23 31 0.0 0.0 0.00 0.03 0.03 41 1007.5
20260505234755 23 162 1.6 1.6 0.00 0.03 0.03 40 1007.3
20260505234253 23 212 4.8 4.8 0.00 0.03 0.03 40 1007.5
20260505233749 23 351 1.6 3.2 0.00 0.03 0.03 40 1007.4
20260505233247 23 221 1.6 1.6 0.00 0.03 0.03 40 1007.2
20260505232744 23 175 4.8 4.8 0.00 0.03 0.03 39 1007.3
20260505232242 23 182 1.6 1.6 0.00 0.03 0.03 39 1007.4
20260505231738 23 254 8.0 16.1 0.00 0.03 0.03 40 1007.1
20260505231237 24 273 3.2 3.2 0.00 0.03 0.03 39 1007.2
20260505230735 23 188 4.8 8.0 0.00 0.03 0.03 40 1007.0
20260505230231 23 298 3.2 4.8 0.00 0.03 0.03 40 1007.0
20260505225728 24 109 8.0 9.7 0.00 0.03 0.03 40 1007.0
20260505225225 24 233 9.7 11.3 0.00 0.03 0.03 39 1007.2
20260505224720 24 176 4.8 8.0 0.00 0.03 0.03 40 1007.0
20260505224218 24 154 3.2 4.8 0.00 0.03 0.03 40 1007.0
20260505223716 24 80 1.6 1.6 0.00 0.03 0.03 40 1007.1
20260505223211 24 74 1.6 1.6 0.00 0.03 0.03 40 1006.9
20260505222708 24 196 8.0 14.5 0.00 0.03 0.03 40 1007.0
20260505222203 23 211 4.8 4.8 0.00 0.03 0.03 40 1007.0
20260505221701 23 145 3.2 3.2 0.00 0.03 0.03 41 1006.8
20260505221158 23 198 3.2 4.8 0.00 0.03 0.03 41 1006.8
20260505220655 23 227 4.8 4.8 0.00 0.03 0.03 41 1006.9
20260505220153 23 25 1.6 1.6 0.00 0.03 0.03 42 1006.8
20260505215650 23 180 4.8 8.0 0.00 0.03 0.03 42 1007.0
20260505215148 23 275 4.8 8.0 0.00 0.03 0.03 43 1007.0
20260505214646 23 220 3.2 3.2 0.00 0.03 0.03 42 1007.0
20260505214143 24 5 1.6 3.2 0.00 0.03 0.03 42 1007.0
20260505213640 24 232 8.0 12.9 0.00 0.03 0.03 41 1007.0
20260505213137 24 207 3.2 3.2 0.00 0.03 0.03 41 1007.0
20260505212632 24 335 3.2 4.8 0.00 0.03 0.03 39 1006.9
20260505212131 25 47 0.0 1.6 0.00 0.03 0.03 39 1006.9
20260505211627 25 236 9.7 22.5 0.00 0.03 0.03 37 1006.7
20260505211124 25 22 1.6 3.2 0.00 0.03 0.03 37 1006.7
20260505210621 25 232 3.2 4.8 0.00 0.03 0.03 37 1006.6
20260505210118 25 129 3.2 4.8 0.00 0.03 0.03 37 1006.4
20260505205615 25 209 8.0 11.3 0.00 0.03 0.03 37 1006.7
20260505205113 25 156 1.6 3.2 0.00 0.03 0.03 39 1006.6
20260505204610 24 198 4.8 8.0 0.00 0.03 0.03 40 1006.7
20260505204107 25 128 1.6 3.2 0.00 0.03 0.03 40 1006.7
20260505203604 25 146 11.3 12.9 0.00 0.03 0.03 37 1006.7
20260505203101 25 245 11.3 16.1 0.00 0.03 0.03 37 1006.6
20260505202557 25 164 14.5 17.7 0.00 0.03 0.03 36 1006.5
20260505202053 25 228 8.0 12.9 0.00 0.03 0.03 36 1006.5
20260505201550 25 197 6.4 11.3 0.00 0.03 0.03 35 1006.5
20260505201048 25 269 8.0 11.3 0.00 0.03 0.03 35 1006.6
20260505200545 25 180 11.3 16.1 0.00 0.03 0.03 35 1006.2
20260505200042 25 186 8.0 17.7 0.00 0.03 0.03 35 1006.3
20260505195538 26 167 6.4 9.7 0.00 0.03 0.03 35 1006.2
20260505195036 26 187 8.0 16.1 0.00 0.03 0.03 34 1006.4
20260505194533 26 211 11.3 12.9 0.00 0.03 0.03 34 1006.2
20260505194028 27 7 8.0 11.3 0.00 0.03 0.03 33 1006.6
20260505193526 27 126 9.7 16.1 0.00 0.03 0.03 33 1006.4
20260505193023 27 263 6.4 9.7 0.00 0.03 0.03 33 1006.5
20260505192521 26 238 8.0 14.5 0.00 0.03 0.03 34 1006.6
20260505192018 27 234 9.7 14.5 0.00 0.03 0.03 34 1006.6
20260505191517 26 215 16.1 25.7 0.00 0.03 0.03 33 1006.7
20260505191014 27 339 6.4 9.7 0.00 0.03 0.03 35 1006.7
20260505190509 26 287 3.2 4.8 0.00 0.03 0.03 37 1006.9
20260505190005 27 268 8.0 9.7 0.00 0.03 0.03 34 1006.9
20260505185502 27 213 8.0 11.3 0.00 0.03 0.03 33 1007.1
20260505184958 27 260 16.1 24.1 0.00 0.03 0.03 34 1007.2
20260505184455 26 303 4.8 8.0 0.00 0.03 0.03 38 1007.0
20260505183951 26 34 4.8 8.0 0.00 0.03 0.03 35 1007.2
20260505183449 26 180 1.6 3.2 0.00 0.03 0.03 33 1007.3
20260505182945 26 271 6.4 9.7 0.00 0.03 0.03 34 1007.6
20260505182442 26 186 11.3 16.1 0.00 0.03 0.03 35 1007.7
20260505181938 26 144 6.4 8.0 0.00 0.03 0.03 37 1007.4
20260505181436 26 138 4.8 8.0 0.00 0.03 0.03 36 1007.5
20260505180933 26 320 6.4 9.7 0.00 0.03 0.03 35 1007.7
20260505180429 26 222 6.4 9.7 0.00 0.03 0.03 33 1007.7
20260505175926 26 26 12.9 22.5 0.00 0.03 0.03 34 1007.6
20260505175422 26 334 1.6 1.6 0.00 0.03 0.03 38 1007.6
20260505174918 26 207 11.3 14.5 0.00 0.03 0.03 38 1007.8
20260505174416 26 23 3.2 4.8 0.00 0.03 0.03 40 1007.8
20260505173912 26 174 11.3 12.9 0.00 0.03 0.03 40 1007.8
20260505173408 25 24 3.2 4.8 0.00 0.03 0.03 41 1007.7
20260505172905 26 18 1.6 1.6 0.00 0.03 0.03 45 1007.8
20260505172403 26 302 4.8 8.0 0.00 0.03 0.03 43 1007.8
20260505171903 25 187 4.8 4.8 0.00 0.03 0.03 41 1007.7
20260505171400 25 322 4.8 8.0 0.00 0.03 0.03 42 1007.9
20260505170856 25 94 4.8 8.0 0.00 0.03 0.03 42 1007.6
20260505170354 25 173 4.8 4.8 0.00 0.03 0.03 42 1007.9
20260505165848 25 248 8.0 12.9 0.00 0.03 0.03 40 1008.1
20260505165344 25 240 6.4 9.7 0.00 0.03 0.03 43 1008.2
20260505164840 25 210 8.0 9.7 0.00 0.03 0.03 41 1008.1
20260505164337 25 358 4.8 9.7 0.00 0.03 0.03 41 1008.3
20260505163836 25 257 6.4 8.0 0.00 0.03 0.03 44 1008.6
20260505163334 25 336 4.8 8.0 0.00 0.03 0.03 42 1008.6
20260505162832 25 307 8.0 11.3 0.00 0.03 0.03 43 1008.5
20260505162328 25 344 3.2 4.8 0.00 0.03 0.03 41 1008.5
20260505161825 25 293 9.7 12.9 0.00 0.03 0.03 42 1008.6
20260505161322 25 39 11.3 16.1 0.00 0.03 0.03 43 1008.5
20260505160819 24 359 1.6 1.6 0.00 0.03 0.03 44 1008.7
20260505160318 24 231 3.2 3.2 0.00 0.03 0.03 44 1008.5
20260505153256 25 252 4.8 9.7 0.00 0.03 0.03 43 1009.0
20260505152753 24 223 4.8 9.7 0.00 0.03 0.03 45 1009.1
20260505152250 24 137 8.0 11.3 0.00 0.03 0.03 45 1009.0
20260505151744 25 149 6.4 11.3 0.00 0.03 0.03 44 1009.1
20260505151242 24 204 8.0 11.3 0.00 0.03 0.03 45 1008.9
20260505150739 24 215 4.8 9.7 0.00 0.03 0.03 45 1009.0
20260505150236 24 224 11.3 14.5 0.00 0.03 0.03 44 1009.3
20260505140200 22 13 3.2 4.8 0.00 0.03 0.03 49 1009.3
20260505130124 21 159 3.2 3.2 0.00 0.03 0.03 55 1009.6
20260505124613 20 37 0.0 1.6 0.00 0.03 0.03 57 1009.7
20260505124110 20 207 4.8 4.8 0.00 0.03 0.03 56 1009.8
20260505123606 20 345 0.0 1.6 0.00 0.03 0.03 57 1009.8
20260505123103 20 220 3.2 3.2 0.00 0.03 0.03 56 1009.6
20260505122559 20 187 3.2 3.2 0.00 0.03 0.03 56 1009.8
20260505122056 20 243 3.2 3.2 0.00 0.03 0.03 59 1009.8
20260505121553 20 230 3.2 3.2 0.00 0.03 0.03 57 1009.9
20260505121050 19 190 1.6 1.6 0.00 0.03 0.03 58 1009.8
20260505120546 19 198 3.2 3.2 0.00 0.03 0.03 57 1009.7
20260505120042 19 73 1.6 3.2 0.00 0.03 0.03 57 1009.5
20260505115536 18 313 1.6 1.6 0.00 0.03 0.03 59 1009.4
20260505115034 18 250 3.2 3.2 0.00 0.03 0.03 61 1009.4
20260505114531 17 200 1.6 3.2 0.00 0.03 0.03 62 1009.6
20260505114027 17 22 0.0 1.6 0.00 0.03 0.03 64 1009.7
20260505113524 17 166 3.2 3.2 0.00 0.03 0.03 64 1009.6
20260505113020 17 242 4.8 9.7 0.00 0.03 0.03 64 1009.5
20260505112516 17 338 1.6 1.6 0.00 0.03 0.03 65 1009.6
20260505112014 17 148 6.4 9.7 0.00 0.03 0.03 64 1009.4
20260505111508 17 268 1.6 1.6 0.00 0.03 0.03 64 1009.3
20260505111005 16 245 6.4 9.7 0.00 0.03 0.03 65 1009.4
20260505110501 16 59 0.0 1.6 0.00 0.03 0.03 69 1009.4